GW0132 Weather Reports


time (UTC)temp
F
wind
direction
speed
knots
gust
knots
rain 1hr
in
rain 24hr
in
rain mn
in
humidity
%
barometer
mb
20260509091432 36 263 0.0 0.0 0.00 0.00 0.00 97 1006.2
20260509090930 36 262 0.0 0.0 0.00 0.00 0.00 97 1006.1
20260509090427 36 264 0.0 0.0 0.00 0.00 0.00 98 1006.1
20260509085925 36 264 0.0 0.0 0.00 0.00 0.00 98 1006.2
20260509085421 36 264 0.0 0.0 0.00 0.00 0.00 98 1006.2
20260509084917 36 263 0.0 0.0 0.00 0.00 0.00 98 1006.3
20260509084414 36 263 0.0 0.0 0.00 0.00 0.00 98 1006.4
20260509083912 36 263 0.0 0.0 0.00 0.00 0.00 98 1006.2
20260509083409 36 263 0.0 0.0 0.00 0.00 0.00 98 1006.4
20260509082905 36 265 0.0 0.0 0.00 0.00 0.00 98 1006.2
20260509082403 36 265 0.0 0.0 0.00 0.00 0.00 98 1006.4
20260509081859 36 265 0.0 0.0 0.00 0.00 0.00 98 1006.6
20260509081357 36 265 0.0 0.0 0.00 0.00 0.00 99 1006.7
20260509080854 35 263 0.0 0.0 0.00 0.00 0.00 99 1006.9
20260509080352 35 262 0.0 0.0 0.00 0.00 0.00 99 1006.9
20260509075851 35 265 0.0 0.0 0.00 0.00 0.00 99 1006.9
20260509075347 35 264 0.0 0.0 0.00 0.00 0.00 99 1006.6
20260509074844 35 264 0.0 0.0 0.00 0.00 0.00 99 1006.7
20260509074342 35 265 0.0 0.0 0.00 0.00 0.00 99 1006.9
20260509073838 34 263 0.0 0.0 0.00 0.00 0.00 99 1006.4
20260509073334 34 263 0.0 0.0 0.00 0.00 0.00 99 1006.6
20260509072831 34 256 0.0 0.0 0.00 0.00 0.00 99 1006.9
20260509072327 34 263 0.0 0.0 0.00 0.00 0.00 99 1007.1
20260509071824 33 266 0.0 0.0 0.00 0.00 0.00 98 1007.2
20260509071321 33 263 0.0 0.0 0.00 0.00 0.00 98 1007.2
20260509070819 33 263 0.0 0.0 0.00 0.00 0.00 98 1007.1
20260509070315 33 264 0.0 0.0 0.00 0.00 0.00 98 1007.3
20260509065811 33 264 0.0 0.0 0.00 0.00 0.00 98 1007.3
20260509065308 33 263 0.0 0.0 0.00 0.00 0.00 98 1007.1
20260509064804 33 262 0.0 0.0 0.00 0.00 0.00 98 1007.3
20260509064302 33 263 0.0 0.0 0.00 0.00 0.00 98 1007.2
20260509063759 33 268 0.0 0.0 0.00 0.00 0.00 97 1007.4
20260509063255 33 263 0.0 0.0 0.00 0.00 0.00 97 1007.6
20260509062752 33 263 0.0 0.0 0.00 0.00 0.00 97 1007.7
20260509062249 33 264 0.0 0.0 0.00 0.00 0.00 97 1007.8
20260509061746 33 264 0.0 0.0 0.00 0.00 0.00 97 1007.7
20260509061244 33 265 0.0 0.0 0.00 0.00 0.00 97 1007.8
20260509060741 33 262 0.0 0.0 0.00 0.00 0.00 97 1008.0
20260509060237 34 265 0.0 0.0 0.00 0.00 0.00 96 1008.0
20260509055733 34 263 0.0 0.0 0.00 0.00 0.00 96 1007.9
20260509055229 34 262 0.0 0.0 0.00 0.00 0.00 96 1008.0
20260509054726 34 263 0.0 0.0 0.00 0.00 0.00 96 1008.0
20260509054223 34 263 0.0 0.0 0.00 0.00 0.00 96 1008.1
20260509053722 34 262 0.0 0.0 0.00 0.00 0.00 96 1008.1
20260509053218 35 262 0.0 0.0 0.00 0.00 0.00 96 1008.2
20260509052716 35 260 0.0 0.0 0.00 0.00 0.00 96 1008.4
20260509052213 35 264 0.0 0.0 0.00 0.00 0.00 96 1008.3
20260509051711 35 262 0.0 0.0 0.00 0.00 0.00 96 1008.5
20260509051209 35 263 0.0 0.0 0.00 0.00 0.00 96 1008.4
20260509050706 35 258 0.0 0.0 0.00 0.00 0.00 96 1008.6
20260509050202 35 263 0.0 0.0 0.00 0.00 0.00 96 1008.4
20260509045659 35 263 0.0 0.0 0.00 0.00 0.00 96 1008.6
20260509045156 35 265 0.0 0.0 0.00 0.00 0.00 96 1008.6
20260509044653 35 262 0.0 0.0 0.00 0.00 0.00 96 1008.7
20260509044150 35 264 0.0 0.0 0.00 0.00 0.00 96 1008.8
20260509043647 35 262 0.0 0.0 0.00 0.00 0.00 96 1008.6
20260509043143 35 265 0.0 0.0 0.00 0.00 0.00 96 1008.7
20260509042639 35 263 0.0 0.0 0.00 0.00 0.00 96 1008.8
20260509042135 34 263 0.0 0.0 0.00 0.00 0.00 96 1008.8
20260509041632 34 263 0.0 0.0 0.00 0.00 0.00 96 1009.0
20260509041130 34 263 0.0 0.0 0.00 0.00 0.00 96 1008.9
20260509040628 35 263 0.0 0.0 0.00 0.00 0.00 96 1008.8
20260509040125 35 263 0.0 0.0 0.00 0.00 0.00 96 1009.0
20260509035621 35 263 0.0 0.0 0.00 0.07 0.07 96 1008.7
20260509035118 35 262 0.0 0.0 0.00 0.07 0.07 95 1009.1
20260509034616 35 263 0.0 0.0 0.00 0.07 0.07 95 1008.9
20260509034113 35 263 0.0 0.0 0.00 0.07 0.07 95 1008.7
20260509033610 35 262 0.0 0.0 0.00 0.07 0.07 95 1009.0
20260509033107 35 263 0.0 0.0 0.00 0.07 0.07 95 1008.9
20260509032604 35 263 0.0 0.0 0.00 0.07 0.07 95 1009.0
20260509032101 35 263 0.0 0.0 0.00 0.07 0.07 95 1008.9
20260509031559 36 263 0.0 0.0 0.00 0.07 0.07 95 1009.0
20260509031055 36 263 0.0 0.0 0.00 0.07 0.07 94 1008.9
20260509030554 36 263 0.0 0.0 0.00 0.07 0.07 94 1008.9
20260509030050 36 263 0.0 0.0 0.00 0.07 0.07 93 1009.2
20260509025546 36 263 0.0 0.0 0.00 0.07 0.07 92 1009.1
20260509025042 37 264 0.0 0.0 0.00 0.07 0.07 92 1008.9
20260509024538 36 264 0.0 0.0 0.00 0.07 0.07 91 1008.8
20260509024034 37 264 0.0 0.0 0.00 0.07 0.07 90 1009.3
20260509023532 37 268 0.0 0.0 0.00 0.07 0.07 90 1009.1
20260509023029 37 263 0.0 0.0 0.00 0.07 0.07 89 1009.2
20260509022526 38 262 0.0 0.0 0.00 0.07 0.07 89 1008.9
20260509022024 38 261 0.0 0.0 0.00 0.07 0.07 88 1009.1
20260509021520 38 262 0.0 0.0 0.00 0.07 0.07 88 1009.0
20260509021017 38 262 0.0 0.0 0.00 0.07 0.07 88 1009.2
20260509020515 38 262 0.0 0.0 0.00 0.07 0.07 88 1009.4
20260509020012 39 263 0.0 0.0 0.00 0.07 0.07 87 1009.2
20260509015511 39 263 0.0 0.0 0.00 0.07 0.07 87 1009.2
20260509015008 39 262 0.0 0.0 0.00 0.07 0.07 87 1009.0
20260509014504 39 263 0.0 0.0 0.00 0.07 0.07 87 1009.2
20260509014001 40 262 0.0 0.0 0.00 0.07 0.07 87 1009.3
20260509013458 40 262 0.0 0.0 0.00 0.07 0.07 86 1009.3
20260509012953 41 264 0.0 0.0 0.00 0.07 0.07 86 1009.1
20260509012450 41 265 0.0 0.0 0.00 0.07 0.07 84 1009.1
20260509011947 41 260 0.0 0.0 0.00 0.07 0.07 83 1009.1
20260509011444 42 259 0.0 0.0 0.00 0.07 0.07 84 1008.9
20260509010942 42 270 0.0 0.9 0.00 0.07 0.07 84 1008.9
20260509010440 42 268 0.0 0.0 0.00 0.07 0.07 83 1009.1
20260509005936 43 271 0.0 0.9 0.00 0.07 0.07 80 1009.0
20260509005434 44 264 0.0 0.0 0.00 0.07 0.07 77 1008.6
20260509004928 44 247 0.0 0.0 0.00 0.07 0.07 76 1008.6
20260509004425 44 272 0.0 0.9 0.00 0.07 0.07 73 1008.7
20260509003923 45 254 0.0 0.0 0.00 0.07 0.07 74 1008.5
20260509003421 46 266 0.0 0.0 0.00 0.07 0.07 71 1008.3
20260509002917 47 251 0.0 0.0 0.00 0.07 0.07 70 1008.6
20260509002416 46 258 0.0 0.0 0.00 0.07 0.07 68 1008.4
20260509001912 47 261 0.0 0.0 0.00 0.07 0.07 65 1008.3
20260509001409 48 265 0.0 0.0 0.00 0.07 0.07 66 1008.4
20260509000906 49 265 0.0 0.0 0.00 0.07 0.07 61 1008.4
20260509000404 49 265 0.0 0.0 0.00 0.07 0.07 59 1008.3
20260508235859 50 265 0.0 0.0 0.00 0.07 0.07 59 1008.3
20260508235357 51 265 0.0 0.0 0.00 0.07 0.07 58 1008.2
20260508234854 52 261 0.0 0.0 0.00 0.07 0.07 58 1008.4
20260508234350 53 260 0.0 0.0 0.00 0.07 0.07 56 1008.1
20260508233849 53 263 0.0 0.0 0.00 0.07 0.07 51 1008.3
20260508233348 54 260 0.0 0.0 0.00 0.07 0.07 47 1008.2
20260508232844 54 258 0.0 0.0 0.00 0.07 0.07 47 1007.9
20260508232340 55 286 0.0 0.9 0.00 0.07 0.07 46 1008.1
20260508231839 55 263 0.0 0.0 0.00 0.07 0.07 47 1007.9
20260508231335 55 320 0.9 1.7 0.00 0.07 0.07 46 1008.0
20260508230832 55 329 1.7 2.6 0.00 0.07 0.07 46 1007.9
20260508230328 55 298 0.9 0.9 0.00 0.07 0.07 49 1008.2
20260508225826 56 285 0.0 0.0 0.00 0.07 0.07 46 1007.9
20260508225322 56 246 0.9 0.9 0.00 0.07 0.07 46 1008.0
20260508224821 56 263 0.0 0.0 0.00 0.07 0.07 43 1008.1
20260508224318 56 270 0.9 0.9 0.00 0.07 0.07 43 1008.1
20260508223815 56 274 0.9 0.9 0.00 0.07 0.07 42 1008.1
20260508223312 56 318 0.9 0.9 0.00 0.07 0.07 43 1008.0
20260508222810 56 289 0.0 0.0 0.00 0.07 0.07 45 1008.0
20260508222307 56 277 1.7 1.7 0.00 0.07 0.07 47 1008.0
20260508221803 57 292 1.7 1.7 0.00 0.07 0.07 46 1007.9
20260508221259 57 282 0.9 1.7 0.00 0.07 0.07 48 1008.1
20260508220755 56 285 2.6 2.6 0.00 0.07 0.07 48 1008.1
20260508220252 56 303 0.9 1.7 0.00 0.07 0.07 43 1008.1
20260508215748 57 287 1.7 2.6 0.00 0.07 0.07 43 1007.9
20260508215245 57 254 0.0 0.0 0.00 0.07 0.07 44 1008.1
20260508214743 57 216 1.7 1.7 0.00 0.07 0.07 43 1008.1
20260508214239 57 289 2.6 4.3 0.00 0.07 0.07 44 1008.0
20260508213736 57 194 0.9 1.7 0.00 0.07 0.07 46 1008.1
20260508213233 57 291 0.9 0.9 0.00 0.07 0.07 44 1008.3
20260508212729 57 282 1.7 1.7 0.00 0.07 0.07 42 1008.2
20260508212226 57 275 0.9 1.7 0.00 0.07 0.07 45 1008.2
20260508211721 57 249 0.9 0.9 0.00 0.07 0.07 42 1008.0
20260508211217 57 236 0.9 0.9 0.00 0.07 0.07 44 1008.3
20260508210715 57 224 0.9 0.9 0.00 0.07 0.07 42 1008.2
20260508210212 57 195 0.9 1.7 0.00 0.07 0.07 45 1008.3
20260508205708 57 358 1.7 2.6 0.00 0.07 0.07 42 1008.3
20260508205205 57 195 0.9 1.7 0.00 0.07 0.07 43 1008.5
20260508204701 57 237 1.7 1.7 0.00 0.07 0.07 43 1008.5
20260508204157 56 258 0.0 0.9 0.00 0.07 0.07 44 1008.5
20260508203654 55 215 1.7 1.7 0.00 0.07 0.07 44 1008.6
20260508203150 56 324 3.5 5.2 0.00 0.07 0.07 45 1008.5
20260508202646 58 280 1.7 2.6 0.00 0.07 0.07 47 1008.7
20260508202144 58 297 0.9 0.9 0.00 0.07 0.07 45 1008.8
20260508201640 58 299 1.7 1.7 0.00 0.07 0.07 44 1008.8
20260508201137 57 291 2.6 2.6 0.00 0.07 0.07 45 1008.8
20260508200634 57 249 0.9 0.9 0.00 0.07 0.07 44 1009.0
20260508200130 56 304 1.7 1.7 0.00 0.07 0.07 45 1008.9
20260508195626 57 340 2.6 2.6 0.00 0.07 0.07 46 1008.7
20260508195123 56 297 1.7 1.7 0.00 0.07 0.07 44 1008.9
20260508194620 57 335 2.6 2.6 0.00 0.07 0.07 43 1008.9
20260508194117 57 275 1.7 1.7 0.00 0.07 0.07 44 1009.0
20260508193614 57 278 0.9 0.9 0.00 0.07 0.07 41 1009.3
20260508193110 56 254 0.9 0.9 0.00 0.07 0.07 45 1009.2
20260508192607 57 282 1.7 2.6 0.00 0.07 0.07 38 1009.3
20260508192104 56 283 0.9 0.9 0.00 0.07 0.07 48 1009.1
20260508191601 56 15 0.9 0.9 0.00 0.07 0.07 46 1009.4
20260508191058 56 299 1.7 1.7 0.00 0.07 0.07 49 1009.4
20260508190555 56 351 1.7 1.7 0.00 0.07 0.07 47 1009.4
20260508190051 56 255 0.9 1.7 0.00 0.07 0.07 50 1009.3
20260508185548 56 187 4.3 7.0 0.00 0.07 0.07 46 1009.4
20260508185046 57 198 1.7 2.6 0.00 0.07 0.07 47 1009.4
20260508184543 56 290 1.7 2.6 0.00 0.07 0.07 52 1009.5
20260508184040 56 266 1.7 1.7 0.00 0.07 0.07 50 1009.4
20260508183536 55 329 2.6 4.3 0.00 0.07 0.07 51 1009.5
20260508183032 55 244 0.9 0.9 0.00 0.07 0.07 52 1009.6
20260508182529 56 162 3.5 5.2 0.00 0.07 0.07 50 1009.6
20260508182025 56 350 0.9 0.9 0.00 0.07 0.07 51 1009.5
20260508181521 55 309 1.7 2.6 0.00 0.07 0.07 54 1009.5
20260508181019 55 176 2.6 4.3 0.00 0.07 0.07 51 1009.7
20260508180515 54 323 2.6 5.2 0.00 0.07 0.07 58 1009.5
20260508180011 52 250 1.7 2.6 0.00 0.07 0.07 59 1009.7
20260508175508 53 311 2.6 2.6 0.00 0.07 0.07 59 1009.6
20260508175006 53 264 2.6 2.6 0.00 0.07 0.07 58 1009.8
20260508174503 53 163 4.3 6.1 0.00 0.07 0.07 64 1009.9
20260508174000 52 242 2.6 4.3 0.00 0.07 0.07 65 1009.8
20260508173457 52 250 0.0 0.9 0.00 0.07 0.07 64 1009.9
20260508172953 54 174 1.7 1.7 0.00 0.07 0.07 60 1010.0
20260508172450 53 286 1.7 1.7 0.00 0.07 0.07 67 1010.1
20260508171946 52 276 0.9 0.9 0.00 0.07 0.07 66 1010.2
20260508171443 52 245 0.9 0.9 0.00 0.07 0.07 64 1010.0
20260508170939 52 206 1.7 2.6 0.00 0.07 0.07 69 1010.1
20260508170437 50 261 2.6 4.3 0.00 0.07 0.07 69 1010.3
20260508165933 50 261 0.0 0.9 0.00 0.07 0.07 68 1010.2
20260508165432 50 210 1.7 1.7 0.00 0.07 0.07 69 1010.3
20260508164927 51 280 0.9 1.7 0.00 0.07 0.07 63 1010.1
20260508164424 50 259 0.9 1.7 0.00 0.07 0.07 67 1010.4
20260508163922 51 185 2.6 4.3 0.00 0.07 0.07 66 1010.6
20260508163419 51 269 0.9 0.9 0.00 0.07 0.07 74 1010.3
20260508162914 50 270 1.7 1.7 0.00 0.07 0.07 69 1010.4
20260508162412 51 206 4.3 5.2 0.00 0.07 0.07 70 1010.7
20260508161909 51 185 0.9 0.9 0.00 0.07 0.07 69 1010.6
20260508161406 49 268 0.9 1.7 0.00 0.07 0.07 72 1010.7
20260508160903 50 279 2.6 2.6 0.00 0.07 0.07 75 1010.6
20260508160402 49 206 3.5 4.3 0.00 0.07 0.07 71 1010.8
20260508155858 50 224 3.5 4.3 0.00 0.07 0.07 74 1011.0
20260508155355 50 267 0.9 1.7 0.00 0.07 0.07 74 1010.9
20260508154852 49 280 2.6 2.6 0.00 0.07 0.07 75 1010.8
20260508154350 49 230 1.7 1.7 0.00 0.07 0.07 78 1010.8
20260508153846 47 271 0.9 1.7 0.00 0.07 0.07 80 1010.7
20260508153343 46 267 1.7 2.6 0.00 0.07 0.07 81 1010.6
20260508152839 46 251 1.7 1.7 0.00 0.07 0.07 81 1010.6
20260508152336 47 201 3.5 4.3 0.00 0.07 0.07 81 1010.8
20260508151832 47 262 0.9 1.7 0.00 0.07 0.07 80 1010.7
20260508151329 47 231 2.6 4.3 0.00 0.07 0.07 80 1010.6
20260508150825 48 234 1.7 1.7 0.00 0.07 0.07 83 1010.6
20260508150322 45 256 0.9 1.7 0.00 0.07 0.07 84 1010.5
20260508145819 46 190 3.5 5.2 0.00 0.07 0.07 83 1010.5
20260508145315 46 258 0.9 0.9 0.00 0.07 0.07 85 1010.8
20260508144812 46 319 0.0 0.9 0.00 0.07 0.07 85 1010.8
20260508144310 46 258 0.9 0.9 0.00 0.07 0.07 88 1010.7
20260508143807 44 325 0.0 0.0 0.00 0.07 0.07 91 1011.0
20260508143304 44 221 0.9 1.7 0.00 0.07 0.07 91 1010.6
20260508142801 43 281 0.0 0.0 0.00 0.07 0.07 92 1010.9
20260508142257 43 268 0.9 0.9 0.00 0.07 0.07 93 1010.8
20260508141754 42 227 1.7 2.6 0.00 0.07 0.07 93 1010.9
20260508141251 42 210 0.9 1.7 0.00 0.07 0.07 93 1010.9
20260508140749 42 280 0.0 0.9 0.00 0.07 0.07 94 1010.7
20260508140245 42 249 1.7 2.6 0.00 0.07 0.07 94 1010.8
20260508135741 41 278 0.0 0.9 0.00 0.07 0.07 93 1010.6
20260508135237 41 229 1.7 1.7 0.00 0.07 0.07 94 1010.6
20260508134733 41 259 0.0 0.0 0.00 0.07 0.07 94 1010.8
20260508134230 41 280 0.0 0.9 0.00 0.07 0.07 94 1010.7
20260508133727 42 207 2.6 2.6 0.00 0.07 0.07 93 1010.6
20260508133225 42 266 0.0 0.9 0.00 0.07 0.07 95 1010.8
20260508132722 41 267 0.0 0.9 0.05 0.07 0.07 95 1010.8
20260508132220 41 264 0.0 0.0 0.05 0.07 0.07 95 1011.0
20260508131715 41 258 0.9 0.9 0.00 0.06 0.06 95 1010.7
20260508131212 41 255 0.9 0.9 0.00 0.06 0.06 95 1010.8
20260508130708 41 305 0.9 0.9 0.00 0.06 0.06 95 1010.9
20260508130206 41 270 0.0 0.0 0.07 0.06 0.06 94 1010.7
20260508125701 41 263 0.0 0.9 0.12 0.06 0.06 93 1010.9
20260508125158 40 159 0.9 1.7 0.05 0.05 0.05 93 1010.6
20260508124656 41 278 3.5 4.3 0.07 0.04 0.04 92 1010.9
20260508124153 41 271 0.9 0.9 0.07 0.04 0.04 92 1010.8
20260508123651 41 199 0.0 0.9 0.07 0.03 0.03 91 1010.8
20260508123149 41 260 0.0 0.0 0.12 0.03 0.03 91 1010.7
20260508122644 42 265 0.0 0.0 0.05 0.02 0.02 90 1010.7
20260508122141 42 267 0.0 0.0 0.00 0.01 0.01 88 1010.4
20260508121639 42 258 0.0 0.0 0.00 0.01 0.01 87 1010.3
20260508121137 42 305 0.9 0.9 0.00 0.01 0.01 85 1010.0
20260508120634 42 220 2.6 2.6 0.00 0.01 0.01 85 1010.0
20260508120133 42 300 0.0 0.9 0.00 0.01 0.01 88 1010.1
20260508115630 42 224 2.6 2.6 0.07 0.01 0.01 87 1009.9
20260508115126 42 215 1.7 1.7 0.07 0.01 0.01 90 1009.9
20260508114624 42 258 0.0 0.9 0.00 0.00 0.00 90 1009.6
20260508114119 41 262 0.9 0.9 0.00 0.00 0.00 91 1009.7
20260508113617 41 148 2.6 4.3 0.00 0.00 0.00 98 1009.6
20260508113115 41 236 0.9 0.9 0.00 0.00 0.00 99 1009.5
20260508112611 40 245 0.9 0.9 0.00 0.00 0.00 99 1009.3
20260508112108 40 224 0.9 0.9 0.00 0.00 0.00 99 1009.6
20260508111605 40 264 0.0 0.0 0.00 0.00 0.00 99 1009.3
20260508111102 40 264 0.0 0.0 0.00 0.00 0.00 99 1009.3
20260508110600 39 264 0.0 0.0 0.00 0.00 0.00 99 1009.2
20260508110055 39 266 0.0 0.0 0.00 0.00 0.00 99 1009.0
20260508105550 39 266 0.0 0.0 0.00 0.00 0.00 99 1009.0
20260508105048 39 264 0.0 0.0 0.00 0.00 0.00 99 1009.0
20260508104546 39 274 0.0 0.0 0.00 0.00 0.00 99 1009.0
20260508104042 39 261 0.0 0.0 0.00 0.00 0.00 99 1008.9
20260508103539 39 260 0.0 0.0 0.00 0.00 0.00 99 1009.0
20260508103037 39 263 0.0 0.0 0.00 0.00 0.00 99 1008.7
20260508102534 38 281 0.0 0.0 0.00 0.00 0.00 99 1008.8
20260508102032 39 266 0.0 0.0 0.00 0.00 0.00 99 1009.0
20260508101529 39 272 0.0 0.0 0.00 0.00 0.00 99 1008.8
20260508101026 38 261 0.0 0.0 0.00 0.00 0.00 99 1008.8
20260508100524 38 258 0.0 0.0 0.00 0.00 0.00 99 1009.0
20260508100021 38 259 0.0 0.0 0.00 0.00 0.00 99 1009.2
20260508095518 38 261 0.0 0.0 0.00 0.00 0.00 99 1009.2
20260508095015 38 260 0.0 0.0 0.00 0.00 0.00 99 1009.2
20260508094512 38 261 0.0 0.0 0.00 0.00 0.00 99 1009.4
20260508094009 37 270 0.0 0.0 0.00 0.00 0.00 99 1009.2
20260508093506 37 267 0.0 0.0 0.00 0.00 0.00 99 1009.5
20260508093004 37 264 0.0 0.0 0.00 0.00 0.00 99 1009.5
20260508092501 37 264 0.0 0.0 0.00 0.00 0.00 99 1009.5
20260508092000 36 260 0.0 0.0 0.00 0.00 0.00 99 1009.2